(321872) = 2010 RP175

Discovered at Apache Point on 2001-10-15 by Sloan Digital Sky Survey.

Orbit

Orbit type: Main Belt

Note: WebGL enabled browser required.

epoch2024-03-31.0
epoch JD2460400.5
perihelion date2024-09-10.91928
perihelion JD2460564.41928
argument of perihelion (°)315.44659
ascending node (°)106.21457
inclination (°)3.20391
eccentricity0.0207262
perihelion distance (AU)2.6597922
Tisserand w.r.t. Jupiter3.4
ΔV w.r.t. Earth (km/sec)10.2
semimajor axis (AU)2.7160865
mean anomaly (°)323.90737
mean daily motion (°/day)0.22018540
aphelion distance (AU)2.772
period (years)4.48
P-vector [x]0.47363206
P-vector [y]0.82284329
P-vector [z]0.31400889
Q-vector [x]-0.87908621
Q-vector [y]0.41995817
Q-vector [z]0.22548296
absolute magnitude17.19
phase slope0.15
uncertainty0
referenceMPEC 2024-C145
observations used239
oppositions14
arc length (days)10860
first opposition used1994
last opposition used2023
residual rms (arc-secs)0.76
perturbers coarse indicatorM-v
perturbers precise indicator003Ek
first observation date used1994-01-11.0
last observation date used2023-10-06.0
computer nameMPCLINUX
JD of orbit computation2456937.256712
perihelion JD uncertainty (days)8.2233E-04
argument of perihelion uncertainty (°)1.9426E-04
ascending node uncertainty (°)7.0441E-05
inclination uncertainty (°)2.8853E-06
eccentricity uncertainty 2.6478E-08
perihelion distance uncertainty (AU)7.3318E-08
Minimum Orbit Intersection Distances (in AU)
for orbit epoch: 2460200.5, reference: E2024-CE5
Mercury2.30185
Venus1.93776
Earth1.67191
Mars1.04181
Jupiter2.27192
Saturn6.38685
Uranus15.7205
Neptune27.1693

Observations

244 total observations over interval: 1994 01 11.19241 – 2023 10 06.292935
These data are available for download (format description).

Date (UT) J2000 RA J2000 Dec Magn Location Ref
1994 01 11.19241 08 13 01.42 +20 52 59.7   691 – Steward Observatory, Kitt Peak-Spacewatch MPS 386909
1994 01 11.22614 08 12 59.44 +20 53 08.5 20.4 V 691 – Steward Observatory, Kitt Peak-Spacewatch MPS 386909
1994 01 11.26017 08 12 57.54 +20 53 17.1   691 – Steward Observatory, Kitt Peak-Spacewatch MPS 386909
2001 10 15.355190 01 03 14.689 +01 13 29.43 20.87 V 645 – Apache Point-Sloan Digital Sky Survey MPS 386909
2001 10 15.358662 01 03 14.510 +01 13 28.45 21.60   645 – Apache Point-Sloan Digital Sky Survey MPS 386909
2001 11 12.192920 00 45 11.653 -00 10 32.51 21.68 V 645 – Apache Point-Sloan Digital Sky Survey MPS 386909
2001 11 12.196392 00 45 11.562 -00 10 32.53 22.53   645 – Apache Point-Sloan Digital Sky Survey MPS 386909
2001 11 18.227410 00 43 19.625 -00 12 31.51 21.69 V 645 – Apache Point-Sloan Digital Sky Survey MPS 386909
2001 11 18.230882 00 43 19.569 -00 12 31.51 22.40   645 – Apache Point-Sloan Digital Sky Survey MPS 386909
2007 01 10.24562 04 21 27.64 +19 31 50.9 20.1 V G96 – Mt. Lemmon Survey MPS 386909
2007 01 10.25123 04 21 27.54 +19 31 50.8 20.2 V G96 – Mt. Lemmon Survey MPS 386909
2007 01 10.25686 04 21 27.39 +19 31 51.7 21.0 V G96 – Mt. Lemmon Survey MPS 386909
2007 01 10.26248 04 21 27.28 +19 31 51.4 21.3 V G96 – Mt. Lemmon Survey MPS 386909
2010 09 09.33826 01 50 42.32 +06 24 39.0 20.6 V 691 – Steward Observatory, Kitt Peak-Spacewatch MPS 349644
2010 09 09.35592 01 50 42.02 +06 24 35.6 21.3 V 691 – Steward Observatory, Kitt Peak-Spacewatch MPS 349644
2010 09 09.37354 01 50 41.67 +06 24 32.2 20.9 V 691 – Steward Observatory, Kitt Peak-Spacewatch MPS 349644
2010 09 17.32709 01 47 41.85 +05 56 54.7 21.1 V 691 – Steward Observatory, Kitt Peak-Spacewatch MPS 349644
2010 09 17.34474 01 47 41.26 +05 56 50.6 21.0 V 691 – Steward Observatory, Kitt Peak-Spacewatch MPS 349644
2010 09 17.36238 01 47 40.77 +05 56 45.8 20.9 V 691 – Steward Observatory, Kitt Peak-Spacewatch MPS 349644
2010 09 30.42465 01 39 46.22 +04 58 35.9 20.2 V G96 – Mt. Lemmon Survey MPS 386909
2010 09 30.42895 01 39 46.00 +04 58 34.7 20.3 V G96 – Mt. Lemmon Survey MPS 386909
2010 09 30.43322 01 39 45.82 +04 58 33.4 20.4 V G96 – Mt. Lemmon Survey MPS 386909
2010 09 30.43750 01 39 45.64 +04 58 32.1 20.1 V G96 – Mt. Lemmon Survey MPS 386909
2010 11 06.23649 01 10 43.89 +02 17 43.5 20.6 V G96 – Mt. Lemmon Survey MPS 386909
2010 11 06.24425 01 10 43.57 +02 17 41.8 21.1 V G96 – Mt. Lemmon Survey MPS 386909
2010 11 06.25214 01 10 43.24 +02 17 41.3 20.7 V G96 – Mt. Lemmon Survey MPS 386910
2010 11 06.26002 01 10 42.92 +02 17 40.1 20.6 V G96 – Mt. Lemmon Survey MPS 386910
2012 01 26.50729 08 49 32.568 +19 41 56.18 20.7 i F51 – Pan-STARRS 1, Haleakala MPS 410250
2012 01 26.52016 08 49 31.826 +19 41 59.90 20.7 i F51 – Pan-STARRS 1, Haleakala MPS 410250
2012 01 26.53275 08 49 31.096 +19 42 03.41 20.9 r F51 – Pan-STARRS 1, Haleakala MPS 410250
2012 01 26.54504 08 49 30.402 +19 42 07.09 20.9 r F51 – Pan-STARRS 1, Haleakala MPS 410250
2012 01 27.32096 08 48 47.26 +19 45 51.3 20.6 V G96 – Mt. Lemmon Survey MPS 410250
2012 01 27.32617 08 48 46.94 +19 45 53.5 20.8 V G96 – Mt. Lemmon Survey MPS 410250
2012 01 27.33140 08 48 46.65 +19 45 55.0 20.8 V G96 – Mt. Lemmon Survey MPS 410250
2012 01 27.33668 08 48 46.36 +19 45 56.1 20.6 V G96 – Mt. Lemmon Survey MPS 410250
2012 02 01.53200 08 43 54.512 +20 10 31.98 21.1 g F51 – Pan-STARRS 1, Haleakala MPS 410250
2012 02 01.54385 08 43 53.812 +20 10 35.20 21.1 g F51 – Pan-STARRS 1, Haleakala MPS 410250
2012 02 11.24231 08 35 08.41 +20 52 07.6 20.9 V G96 – Mt. Lemmon Survey MPS 411623
2012 02 11.25087 08 35 07.94 +20 52 09.5 20.5 V G96 – Mt. Lemmon Survey MPS 411623
2012 02 11.25947 08 35 07.51 +20 52 11.4 20.7 V G96 – Mt. Lemmon Survey MPS 411623
2012 02 11.26806 08 35 07.00 +20 52 13.6 20.7 V G96 – Mt. Lemmon Survey MPS 411623
2012 02 13.30661 08 33 24.300 +20 59 59.19 21.2 w F51 – Pan-STARRS 1, Haleakala MPS 411623
2012 02 13.32114 08 33 23.549 +21 00 02.44 21.1 w F51 – Pan-STARRS 1, Haleakala MPS 411623
2012 02 13.33571 08 33 22.804 +21 00 05.69 21.1 w F51 – Pan-STARRS 1, Haleakala MPS 411623
2012 02 13.35030 08 33 22.042 +21 00 08.96 21.3 w F51 – Pan-STARRS 1, Haleakala MPS 411623
2013 04 15.50357 15 34 41.549 -14 54 45.82 21.4 w F51 – Pan-STARRS 1, Haleakala MPS 464973
2013 04 15.51782 15 34 41.021 -14 54 43.54 21.1 w F51 – Pan-STARRS 1, Haleakala MPS 464973
2013 04 15.53209 15 34 40.487 -14 54 41.40 21.0 w F51 – Pan-STARRS 1, Haleakala MPS 464973
2013 05 15.34566 15 10 54.33 -13 29 15.1 20.7 V G96 – Mt. Lemmon Survey MPS 468618
2013 05 15.35270 15 10 53.97 -13 29 14.0 20.8 V G96 – Mt. Lemmon Survey MPS 468618
2013 05 15.35971 15 10 53.58 -13 29 12.8 20.5 V G96 – Mt. Lemmon Survey MPS 468618
2013 05 15.36673 15 10 53.14 -13 29 11.6 20.4 V G96 – Mt. Lemmon Survey MPS 468618
2014 08 03.47755 22 34 09.276 -12 27 07.14 21.2 w F51 – Pan-STARRS 1, Haleakala MPS 526466
2014 08 03.49103 22 34 08.779 -12 27 11.25 21.2 w F51 – Pan-STARRS 1, Haleakala MPS 526466
2014 08 03.50445 22 34 08.269 -12 27 15.51 21.3 w F51 – Pan-STARRS 1, Haleakala MPS 526466
2014 08 03.51788 22 34 07.749 -12 27 19.51 21.4 w F51 – Pan-STARRS 1, Haleakala MPS 526466
2014 08 05.48485 22 32 54.991 -12 37 26.54 20.7 w F51 – Pan-STARRS 1, Haleakala MPS 526466
2014 08 05.49836 22 32 54.441 -12 37 30.63 20.8 w F51 – Pan-STARRS 1, Haleakala MPS 526466
2014 08 05.51186 22 32 53.908 -12 37 35.06 20.7 w F51 – Pan-STARRS 1, Haleakala MPS 526466
2014 09 02.36011 22 11 10.389 -15 10 05.32 20.6 i F51 – Pan-STARRS 1, Haleakala MPS 531323
2014 09 02.37372 22 11 09.718 -15 10 09.53 20.4 i F51 – Pan-STARRS 1, Haleakala MPS 531323
2014 09 02.38729 22 11 09.039 -15 10 13.58 20.6 i F51 – Pan-STARRS 1, Haleakala MPS 531323
2014 09 18.29885 21 59 49.606 -16 14 15.99 21.3 w F51 – Pan-STARRS 1, Haleakala MPS 532981
2014 09 18.36880 21 59 47.022 -16 14 28.55 21.2 w F51 – Pan-STARRS 1, Haleakala MPS 532981
2014 09 20.32611 21 58 41.008 -16 20 00.48 21.3 w F51 – Pan-STARRS 1, Haleakala MPS 536297
2014 09 20.33735 21 58 40.621 -16 20 02.48 21.1 w F51 – Pan-STARRS 1, Haleakala MPS 536297
2014 09 20.34856 21 58 40.230 -16 20 04.05 21.2 w F51 – Pan-STARRS 1, Haleakala MPS 536297
2014 09 20.36244 21 58 39.758 -16 20 06.48 21.2 w F51 – Pan-STARRS 1, Haleakala MPS 536297
2014 09 24.25440 21 56 43.04 -16 29 24.7 20.9 V G96 – Mt. Lemmon Survey MPS 536297
2014 09 24.26099 21 56 42.82 -16 29 26.5 20.3 V G96 – Mt. Lemmon Survey MPS 536297
2014 09 24.26758 21 56 42.65 -16 29 26.0 21.1 V G96 – Mt. Lemmon Survey MPS 536297
2014 09 24.27416 21 56 42.44 -16 29 26.9 21.0 V G96 – Mt. Lemmon Survey MPS 536297
2015 12 09.50062 05 11 18.119 +20 32 51.03 20.5 w F51 – Pan-STARRS 1, Haleakala MPS 659464
2015 12 09.51450 05 11 17.261 +20 32 50.87 20.6 w F51 – Pan-STARRS 1, Haleakala MPS 659464
2015 12 09.52836 05 11 16.407 +20 32 50.56 20.5 w F51 – Pan-STARRS 1, Haleakala MPS 659464
2015 12 09.54221 05 11 15.551 +20 32 50.43 20.5 w F51 – Pan-STARRS 1, Haleakala MPS 659464
2015 12 16.28033 05 04 33.37 +20 32 00.5 21.1 V G96 – Mt. Lemmon Survey MPS 662488
2015 12 16.28542 05 04 33.09 +20 32 00.1 21.4 V G96 – Mt. Lemmon Survey MPS 662488
2015 12 16.29050 05 04 32.76 +20 32 00.1 21.0 V G96 – Mt. Lemmon Survey MPS 662488
2015 12 16.29559 05 04 32.40 +20 31 59.0 20.4 V G96 – Mt. Lemmon Survey MPS 662488
2016 01 03.23595 04 49 06.76 +20 33 11.7 21.4 V G96 – Mt. Lemmon Survey MPS 668005
2016 01 03.24104 04 49 06.55 +20 33 11.6 21.3 V G96 – Mt. Lemmon Survey MPS 668005
2016 01 03.24612 04 49 06.36 +20 33 11.2   G96 – Mt. Lemmon Survey MPS 668005
2016 01 03.25121 04 49 06.05 +20 33 12.1   G96 – Mt. Lemmon Survey MPS 668005
2016 01 08.23102 04 45 59.320 +20 35 13.79 21.4 w F51 – Pan-STARRS 1, Haleakala MPS 668005
2016 01 08.24454 04 45 58.839 +20 35 14.34 21.1 w F51 – Pan-STARRS 1, Haleakala MPS 668005
2016 01 08.25811 04 45 58.368 +20 35 14.87 21.1 w F51 – Pan-STARRS 1, Haleakala MPS 668005
2016 01 08.27162 04 45 57.894 +20 35 15.34 21.1 w F51 – Pan-STARRS 1, Haleakala MPS 668005
2017 02 21.49026 12 36 49.680 +00 48 54.48 21.4 w F51 – Pan-STARRS 1, Haleakala MPS 771582
2017 02 21.50248 12 36 49.360 +00 48 57.53 21.3 w F51 – Pan-STARRS 1, Haleakala MPS 771582
